Location: St. Louis
(38.6270°N, 90.1994°W)
Time: 01:25:48
(UTC-06:00)

Transit 2A - Pass Details

Date: 05 December 2021
Orbit: 591 x 966 km, 66.7° (Epoch: 24 January)

Event Time Altitude Azimuth Distance (km) Brightness Sun altitude
Rises 22:09:27 0° 171° (S) 3,216 - -62.9°
Reaches altitude 10° 22:12:09 10° 157° (SSE) 2,360 - -63.3°
Maximum altitude 22:16:27 24° 105° (ESE) 1,683 - -64.0°
Drops below altitude 10° 22:21:04 10° 54° (NE) 2,565 - -64.8°
Sets 22:24:08 0° 41° (NE) 3,563 - -65.3°
